Location: Bastelaar
(51.0950°N, 3.8602°E)
Time: 07:42:49
(UTC+00:00)

PSLV R/B - Pass Details

Date: 18 November 2025
Orbit: 561 x 589 km, 98.0° (Epoch: 12 December)

Event Time Altitude Azimuth Distance (km) Brightness Sun altitude
Rises 17:51:07 0° 157° (SSE) 2,759 6.8 -18.3°
Reaches altitude 10° 17:53:15 10° 155° (SSE) 1,862 5.8 -18.6°
Maximum altitude 17:57:15 69° 73° (ENE) 608 3.2 -19.2°
Drops below altitude 10° 18:01:17 10° 350° (N) 1,868 6.1 -19.9°
Sets 18:03:26 0° 348° (NNW) 2,768 7.0 -20.2°
